User: anonymous   Login
Location: Unspecified
(0.0000°N, 0.0000°E)
Time: 15:06:16
(UTC+00:00)
Language:

TURKMENALEM 52E/MONACOSA - Orbit

View from above orbital plane
View from above orbital plane
View from above satellite
View from above satellite

Ground track
Ground track

The orbit data is extracted from the following two-line orbital elements,

1 40617U 15023A   19048.47479802  .00000091  00000-0  00000+0 0  9991
2 40617   0.0170 107.9452 0001880 225.5835  36.5402  1.00270091 13995
Epoch (UTC): 17 February 2019 11:23:42
Eccentricity: 0.0001880
inclination: 0.0170°
perigee height: 35779 km
apogee height: 35794 km
right ascension of ascending node: 107.9452°
argument of perigee: 225.5835°
revolutions per day: 1.00270091
mean anomaly at epoch: 36.5402°
orbit number at epoch: 1399

The dashed part of the orbit path shows where the satellite is in the earth's shadow,  

DLR